AirNav   Air Wisconsin pilot careers
 
 578 users online  

7Y7 A.R.S. Sport Strip
Belle Plaine, Minnesota, USA

GOING TO BELLE PLAINE?


FAA INFORMATION EFFECTIVE 21 JUNE 2018

Location

FAA Identifier: 7Y7
Lat/Long: 44-39-35.0000N / 093-46-43.5850W
44-39.583333N / 093-46.726417W
44.6597222 / -93.7787736
(estimated)
Elevation: 955 ft. / 291 m (estimated)
Variation: 04E (1985)
From city: 3 miles N of BELLE PLAINE, MN
Time zone: UTC -5 (UTC -6 during Standard Time)
Zip code: 56011

Airport Operations

Airport use: Open to the public
Activation date: 06/1966
Control tower: no
ARTCC: MINNEAPOLIS CENTER
FSS: PRINCETON FLIGHT SERVICE STATION
NOTAMs facility: PNM (NOTAM-D service available)
Attendance: MON-FRI 0800-1700
Wind indicator: yes
Segmented circle: no

Airport Communications

CTAF: 122.9
WX AWOS-3 at GYL (14 nm NW): 119.625 (320-864-5830)
WX ASOS at FCM (17 nm NE): PHONE 952-941-4156

Nearby radio navigation aids

VOR radial/distance  VOR name  Freq  Var
FCMr234/17.4FLYING CLOUD VOR/DME117.7001E
FGTr268/25.5FARMINGTON VORTAC115.7006E
MKTr005/27.0MANKATO VOR/DME110.8007E
MSPr236/27.1MINNEAPOLIS VOR/DME115.3002E
FOWr325/32.4HALFWAY VOR/DME111.2002E
GEPr205/33.9GOPHER VORTAC117.3006E
DWNr125/38.5DARWIN VORTAC109.0007E

 
NDB name  Hdg/Dist  Freq  Var  ID
GLENCOE112/14.540703EGYL --. -.-- .-..
HOPEY247/37.940003EPPI .--. .--. ..

Airport Services

Parking: tiedowns
Airframe service: NONE
Powerplant service: NONE

Runway Information

Runway 18/36

Dimensions: 2546 x 110 ft. / 776 x 34 m
Surface: turf, in good condition
Runway edge markings: RWY 18/36 MARKED WITH YELLOW CONES.
RUNWAY 18  RUNWAY 36
Latitude: 44-39.792833N44-39.373833N
Longitude: 093-46.725667W093-46.727167W
Elevation: 950.0 ft.955.0 ft.
Traffic pattern: leftleft
Runway heading: 176 magnetic, 180 true356 magnetic, 360 true
Displaced threshold: no210 ft.
Obstructions: 12 ft. tree, 63 ft. from runway, 73 ft. left of centerline, 5:1 slope to clear
RWY 36 SLOPE 16:1 TO DISPL THLD.
66 ft. tree, 933 ft. from runway, 165 ft. right of centerline, 14:1 slope to clear

Airport Ownership and Management from official FAA records

Ownership: Privately-owned
Owner: DIANE MINOR
25796 200TH ST
BELLE PLAINE, MN 56011-9305
Phone 612-873-5518
Manager: JAMES DROMETER
25796 200TH ST
BELLE PLAINE, MN 56011-9305
Phone 952-873-6659

Airport Operational Statistics

Aircraft based on the field: 5
Single engine airplanes: 5
    
Aircraft operations: avg 57/week *
77% transient general aviation
23% local general aviation
* for 12-month period ending 30 June 2015

Additional Remarks

WINTER MONTHS: CTC ARPT MGR 952-873-6659 FOR PLOWING.

Instrument Procedures

There are no published instrument procedures at 7Y7.

Some nearby airports with instrument procedures:

KGYL - Glencoe Municipal Airport (14 nm NW)
KFCM - Flying Cloud Airport (17 nm NE)
KLVN - Airlake Airport (24 nm E)
KMKT - Mankato Regional Airport (27 nm S)
KMSP - Minneapolis-St Paul International/Wold-Chamberlain Airport (27 nm NE)
 
Loc | Ops | Rwys | IFR | FBO | Links
Com | Nav | Svcs | Stats | Notes

AirNav Hotels Sweepstakes
 
Area around 7Y7 (A.R.S. Sport Strip)
 
Road maps at: MapQuest Bing Google
 
Aerial photo
WARNING: Photo may not be current or correct
Aerial photo of 7Y7 (A.R.S. Sport Strip)
Photo by Tom Fitzhenry
Taken in the Summer of 2008

Do you have a better or more recent aerial photo of A.R.S. Sport Strip that you would like to share? If so, please send us your photo.

 
Sectional chart

 
Airport distance calculator
Flying to A.R.S. Sport Strip? Find the distance to fly.

From to 7Y7

Sunrise and sunset
Times for 23-Jun-2018
 Local
(UTC-5)
 Zulu
(UTC)
Morning civil twilight04:5409:54
Sunrise05:3110:31
Sunset21:0302:03
Evening civil twilight21:4002:40

Current date and time
Zulu (UTC)  23-Jun-2018 05:18:22
Local (UTC-5)  23-Jun-2018 00:18:22
 
METAR
KGYL 
14nm NW 
230455Z AUTO 00000KT 10SM CLR 19/19 A2980 RMK AO2 T01860187
KFCM 
17nm NE 
230453Z AUTO 00000KT 10SM CLR 19/16 A2979 RMK AO2 SLP084 T01940161
KLVN 
24nm E 
230455Z AUTO 00000KT 10SM CLR 18/18 A2980 RMK AO2
KMSP 
27nm NE 
230453Z 00000KT 10SM FEW250 23/14 A2980 RMK AO2 SLP088 T02280144
KMKT 
27nm S 
230356Z AUTO 00000KT 10SM CLR 19/16 A2981 RMK AO2 SLP093 T01890161
KHCD 
28nm NW 
230455Z AUTO 00000KT 10SM CLR 19/18 A2981 RMK AO2 T01860176
TAF
NOTAMs
Click for the latest NOTAMs
NOTAMs are issued by the DoD/FAA and will open in a separate window not controlled by AirNav.

 

 
 

Would you like to see your business listed on this page?

 If your business provides an interesting product or service to pilots, flight crews, aircraft, or users of the A.R.S. Sport Strip, you should consider listing it here.  To start the listing process, click on the button below
 
Add a business
 

Other Pages about A.R.S. Sport Strip

PDF page(s) from the Minnesota Airport Directory
 
Update a link
 
Copyright © AirNav, LLC. All rights reserved. Privacy Policy  Contact